IRIDIUM 33 DEB, 33966

Orbit data source: Space-Track

IRIDIUM 33 DEB, 33966 is space debris in LEO originally from a launch on Sun, 14 Sep 1997 UTC launched from the Tyuratam Missile And Space Complex (TTMTR). The debris from Iridium 33, an American commercial communications satellite, has been tracked extensively since its accidental collision with the defunct Russian satellite Cosmos 2251 in 2009. This event, occurring at high speed in low Earth orbit (LEO), generated thousands of pieces of space debris, significantly increasing the risk of further collisions. The Iridium 33 debris cloud has impacted space traffic management and orbital debris mitigation strategies, making it a subject of ongoing study in space situational awareness.

Loading next visibility...
Identifier
33966, 1997-051CB
Orbit
LEO
Country
Flag of USUS
Related business
Manufacturer
Unknown
Mission
Spacecraft
Bus & Motor
Unknown
Mass
Unknown
Launch date (UTC)
1997-09-14 (28 years ago)
Launch vehicle
Unknown
Launch site
Tyuratam Missile And Space Complex (TTMTR)
Object type
Payload
Rocket body
Debris
Shape & HBR
Unknown shape, 0.2 m
Radar Cross Section
Small (<0.1 m²)

Expand to show TLE details & history
Last TLE update: 8 hours ago

TLE from 8 hours ago
0 IRIDIUM 33 DEB
1 33966U 97051CB  25348.91669899  .00001770  00000-0  45592-3 0  9991
2 33966  86.3927  45.0932 0007688 180.8005 357.2153 14.49603787884733
Epoch: 2025-12-14T22:00Z
TLE epoch observation values (Epoch: 2025-12-14T22:00:02.792Z)
Latitude
1.87609°
Longitude
171.14114°
Altitude
724.334 km
Speed
7.496 km/s
True Right ascension
14h 59m 54s
True Declination
1° 51' 53"
Sunlit
Object was in daylight at epoch
Visualization orbit readout
Latitude
Unknown
Longitude
Unknown
Altitude
Unknown
Speed
Unknown
Apparent Right ascension
Unknown
Apparent Declination
Unknown
Sunlit
N/A
Visualization observer readout
Local Sidereal Time
04:14:35
Azimuth
Unknown
Elevation
Unknown
Doppler factor
Unknown
Orbital elements
Apogee altitude
729.346 km
Perigee altitude
718.426 km
Semi-major axis
7,102.023 km
Eccentricity
0.00077
Inclination
86.3927°
RAAN
45.0932°
Arg. of periapsis
180.8005°
True anomaly
357.21102°
Mean anomaly
357.2153°
Eccentric anomaly
357.21316°
Mean motion
3.62635 °/min
Orbital period
99.27 mins
BSTAR
0.00045592
Loading maneuver chart data...
Computing Atmospheric mass density...

Documentation

Showing up to 5 results
|